"Pseudo-MPEC" for P10OT5q

Created 2019 Jun 15 19:08:55 UT using Find_Orb

Click here for an explanation of pseudo-MPECs

 
 Astrometry: 
     P10OT5q  C2019 05 30]57g*Og)3t3d'M`.i60Jbd?r89Ndv=UG+++Y]`ydr(b;rs?[]^-uF52
     P10OT5q  C2019 05 30x5:NSolTx_sW#VqW@LO4DO-cdjGq@yaZN:Astrometry)@n^rTW*F52
     P10OT5q  C2019 06 011gUB-'qcol#XVn(h%i-)+(QCT_^KgnmNu?lk4^om;=MC_,fa:IFBF51
     P10OT5q  C2019 06 01jv:D5e2)2:XQ,J@Esg`6:redacted;]uFI6:L\63@K_7+rQc#8gwF51
     P10OT5q  C2019 06 01]`dwvX4KY]ascx0iXw0]yIt^uGSriPUOo,'@Q`Wmclick4@Ex/#uF51
     P10OT5q  C2019 06 01saNC[2r;3K3VBRKNX,Hcm%V'E!Y/YT(@\%Unxq[#^^Y[j^ck2e8kF51
     P10OT5q  C2019 06 09vs7QR0`(PBb`j:1KqI/Q*SinhereU4ZuLKKEQg7yqY;WIUhOL88WF51
     P10OT5q  C2019 06 09vl!D!5Xvb*!aF$9=k*pb1tA@bplT/$+U%OVn.-0l.rlfe/WI%tgjF51
     P10OT5q  C2019 06 09n/00%W?h[JC:yT.aa?-Ik60cGYCAG3iVD5!?$6CGPforBU^^pWk@F51
     P10OT5q  C2019 06 09HE02/WlRSmevI/v8do8P5siMjrd#t5M+[%^Nj5QTejr[,sMJ#xFiF51
     P10OT5q HC2019 06 10hGbRJ9S1u2JIV_!0JE)_QV3VYOTsv'5(+;.DHss4CCj(xU-C8lNn691
     P10OT5q HC2019 06 10Y*'/8a\4hqpsfXrhRkuhexplanationFX@!ec91lakviT5*6#MaN691
     P10OT5q  C2019 06 13.30825 16 52 43.51 -01 14 23.6    ~6D8M       VNEOCPI52
     P10OT5q  C2019 06 13.31538 16 52 42.92 -01 14 27.7    ~6D8M       VNEOCPI52
     P10OT5q  C2019 06 13.31818 16 52 42.71 -01 14 29.6    ~6D8M       VNEOCPI52

Station data:
(691) Steward Observatory, Kitt Peak - Spacewatch  (N31.962174 W111.600327)
   US/Arizona.  Observer J. V. Scotti. 0.9-m f/3 reflector + CCD.
(F51) Pan-STARRS 1, Haleakala  (N20.707235 W156.255910)  US/Hawaii.
   Observers N. Primak, A. Schultz, S. Watters, J. Thiel, T. Goggia. Measurer
   PS1 Science Consortium. 1.8-m Ritchey-Chrétien + CCD.
(F52) Pan-STARRS 2, Haleakala  (N20.707384 W156.255910)  US/Hawaii. 1.8-m
   Ritchey-Chrétien + CCD.
(I52) Steward Observatory, Mt. Lemmon Station  (N32.442547 W110.788920)
   US/Arizona.  Observers T. A. Pruyne, B. M. Africano, E. J. Christensen, G.
   A. Farneth, D. C. Fuls, A. R. Gibbs, A. D. Grauer, H. Groeller, J. A.
   Johnson, R. A. Kowalski, S. M. Larson, G. J. Leonard, R. L. Seaman, F. C.
   Shelly. 1.0-m reflector + CCD.

Orbital elements:  P10OT5q
   Perihelion 2020 Oct 20.948141 +/- 0.915 TT = 22:45:19 (JD 2459143.448141)
Epoch 2019 Jun 13.0 TT = JDT 2458647.5   Earth MOID: 0.7550   AutoNEOCP
M 182.12191202 +/- 0.37             (J2000 ecliptic)
n   0.35866267 +/- 0.000195         Peri.  328.66043 +/- 0.27
a   1.96190779 +/- 0.00071          Node   103.92490 +/- 0.040
e   0.1234360 +/- 0.000362          Incl.   24.15793 +/- 0.038
P   2.75                   H 18.6   G  0.15   U  7.0  
q 1.71973755 +/- 0.000296    Q 2.20407803 +/- 0.00147
From 15 observations 2019 May 30-June 13; mean residual 0".20
Residuals in arcseconds: 
190530 F52  .26+  .09-    190601 F51  .34-  .21+    190610 691  .57+  .54-    
190530 F52  .11+  .00     190609 F51  .03+  .10+    190610 691  .34-  .14+    
190601 F51  .12-  .03-    190609 F51  .04-  .13+    190613 I52  .06-  .18-    
190601 F51  .06-  .02-    190609 F51  .06+  .12+    190613 I52  .20-  .19+    
190601 F51  .17-  .05-    190609 F51  .06+  .12+    190613 I52  .07+  .04+    

Ephemerides (geocentric):
Date (UTC) HH   RA              Dec         delta   r     elong  mag " sig PA
---- -- -- --  -------------   -----------  ------ ------ -----  --- ---- ---
2019 06 15 19  16 49 29.341   -01 41 00.64  1.2377 2.2038 155.8 21.5 .491 148
2019 06 15 20  16 49 26.116   -01 41 28.25  1.2377 2.2038 155.8 21.5 .497 148
2019 06 15 21  16 49 22.893   -01 41 55.88  1.2378 2.2038 155.7 21.5 .503 148
2019 06 15 22  16 49 19.672   -01 42 23.53  1.2379 2.2038 155.7 21.5 .510 148
2019 06 15 23  16 49 16.451   -01 42 51.21  1.2380 2.2038 155.7 21.5 .516 148
2019 06 16 00  16 49 13.232   -01 43 18.91  1.2380 2.2038 155.7 21.5 .523 148
2019 06 16 01  16 49 10.014   -01 43 46.64  1.2381 2.2038 155.7 21.5 .529 148
2019 06 16 02  16 49 06.797   -01 44 14.39  1.2382 2.2038 155.6 21.5 .536 148
2019 06 16 03  16 49 03.582   -01 44 42.16  1.2383 2.2038 155.6 21.5 .542 148
2019 06 16 04  16 49 00.368   -01 45 09.95  1.2383 2.2038 155.6 21.5 .549 148
2019 06 16 05  16 48 57.155   -01 45 37.77  1.2384 2.2038 155.6 21.5 .555 148
2019 06 16 06  16 48 53.944   -01 46 05.62  1.2385 2.2038 155.6 21.5 .562 148
2019 06 16 07  16 48 50.734   -01 46 33.48  1.2386 2.2038 155.5 21.5 .569 148
2019 06 16 08  16 48 47.525   -01 47 01.37  1.2387 2.2038 155.5 21.5 .575 147
2019 06 16 09  16 48 44.318   -01 47 29.29  1.2387 2.2038 155.5 21.5 .582 147
2019 06 16 10  16 48 41.112   -01 47 57.22  1.2388 2.2038 155.5 21.5 .589 147
2019 06 16 11  16 48 37.907   -01 48 25.18  1.2389 2.2037 155.5 21.5 .596 147
2019 06 16 12  16 48 34.704   -01 48 53.17  1.2390 2.2037 155.4 21.5 .602 147
2019 06 16 13  16 48 31.502   -01 49 21.17  1.2391 2.2037 155.4 21.5 .609 147
2019 06 16 14  16 48 28.302   -01 49 49.20  1.2391 2.2037 155.4 21.5 .616 147
2019 06 16 15  16 48 25.102   -01 50 17.26  1.2392 2.2037 155.4 21.5 .623 147
2019 06 16 16  16 48 21.905   -01 50 45.33  1.2393 2.2037 155.4 21.5 .630 147
2019 06 16 17  16 48 18.708   -01 51 13.43  1.2394 2.2037 155.3 21.5 .637 147
2019 06 16 18  16 48 15.513   -01 51 41.55  1.2395 2.2037 155.3 21.5 .644 147
2019 06 16 19  16 48 12.319   -01 52 09.70  1.2396 2.2037 155.3 21.5 .651 147
2019 06 16 20  16 48 09.127   -01 52 37.87  1.2396 2.2037 155.3 21.5 .658 147
2019 06 16 21  16 48 05.936   -01 53 06.06  1.2397 2.2037 155.3 21.5 .665 147
2019 06 16 22  16 48 02.747   -01 53 34.28  1.2398 2.2037 155.2 21.5 .672 147
2019 06 16 23  16 47 59.559   -01 54 02.51  1.2399 2.2037 155.2 21.5 .679 146
2019 06 17 00  16 47 56.372   -01 54 30.77  1.2400 2.2037 155.2 21.5 .686 146
2019 06 17 01  16 47 53.187   -01 54 59.06  1.2401 2.2037 155.2 21.5 .694 146
2019 06 17 02  16 47 50.003   -01 55 27.36  1.2402 2.2037 155.1 21.5 .701 146
2019 06 17 03  16 47 46.821   -01 55 55.69  1.2403 2.2037 155.1 21.5 .708 146
2019 06 17 04  16 47 43.640   -01 56 24.04  1.2403 2.2037 155.1 21.5 .715 146
2019 06 17 05  16 47 40.461   -01 56 52.42  1.2404 2.2037 155.1 21.5 .723 146
2019 06 17 06  16 47 37.283   -01 57 20.82  1.2405 2.2037 155.1 21.5 .730 146
2019 06 17 07  16 47 34.107   -01 57 49.24  1.2406 2.2037 155.0 21.5 .738 146
2019 06 17 08  16 47 30.932   -01 58 17.68  1.2407 2.2037 155.0 21.5 .745 146
2019 06 17 09  16 47 27.758   -01 58 46.14  1.2408 2.2037 155.0 21.5 .752 146
2019 06 17 10  16 47 24.586   -01 59 14.63  1.2409 2.2037 155.0 21.5 .760 146
2019 06 17 11  16 47 21.416   -01 59 43.14  1.2410 2.2037 154.9 21.5 .767 146
2019 06 17 12  16 47 18.247   -02 00 11.68  1.2411 2.2037 154.9 21.5 .775 146
2019 06 17 13  16 47 15.079   -02 00 40.23  1.2412 2.2037 154.9 21.5 .783 146
2019 06 17 14  16 47 11.913   -02 01 08.81  1.2412 2.2037 154.9 21.5 .790 145
2019 06 17 15  16 47 08.749   -02 01 37.41  1.2413 2.2037 154.8 21.5 .798 145
2019 06 17 16  16 47 05.586   -02 02 06.03  1.2414 2.2037 154.8 21.5 .805 145
2019 06 17 17  16 47 02.424   -02 02 34.68  1.2415 2.2037 154.8 21.5 .813 145
2019 06 17 18  16 46 59.264   -02 03 03.35  1.2416 2.2037 154.8 21.5 .821 145